Time,TemperatureF,DewpointF,PressureIn,WindDirection,WindDirectionDegrees,WindSpeedMPH,WindSpeedGustMPH,Humidity,HourlyPrecipIn,Conditions,Clouds,dailyrainin,SolarRadiationWatts/m^2,SoftwareType,DateUTC
2013-07-15 00:01:00,72.0,69.0,-100.00,NE,35,1.0,2.0,89,0.00,,,0.41,0.000000,,2013-07-15 04:01:00,
2013-07-15 00:22:00,72.0,69.0,-100.00,NE,36,1.0,4.0,89,0.00,,,0.41,0.000000,,2013-07-15 04:22:00,
2013-07-15 00:33:00,72.0,69.0,-100.00,NE,36,1.0,4.0,89,0.00,,,0.41,0.000000,,2013-07-15 04:33:00,
2013-07-15 00:42:00,72.0,69.0,-100.00,NE,36,1.0,4.0,89,0.00,,,0.41,0.000000,,2013-07-15 04:42:00,
2013-07-15 00:54:00,72.0,69.0,-100.00,NE,36,1.0,4.0,89,0.00,,,0.41,0.000000,,2013-07-15 04:54:00,
2013-07-15 01:02:00,72.0,69.0,-100.00,NE,36,1.0,4.0,89,0.00,,,0.41,0.000000,,2013-07-15 05:02:00,
2013-07-15 01:22:00,72.0,69.0,-100.00,NNE,31,1.0,2.0,90,0.00,,,0.35,0.000000,,2013-07-15 05:22:00,
2013-07-15 01:32:00,72.0,69.0,-100.00,NNE,31,1.0,2.0,90,0.00,,,0.35,0.000000,,2013-07-15 05:32:00,
2013-07-15 01:43:00,72.0,69.0,-100.00,NNE,31,1.0,2.0,90,0.00,,,0.35,0.000000,,2013-07-15 05:43:00,
2013-07-15 01:53:00,72.0,69.0,-100.00,NNE,31,1.0,2.0,90,0.00,,,0.35,0.000000,,2013-07-15 05:53:00,
2013-07-15 02:02:00,72.0,69.0,-100.00,NNE,31,1.0,2.0,90,0.00,,,0.35,0.000000,,2013-07-15 06:02:00,
2013-07-15 02:22:00,71.0,69.0,-100.00,NNE,23,1.0,2.0,94,0.00,,,0.35,0.000000,,2013-07-15 06:22:00,
2013-07-15 02:32:00,71.0,69.0,-100.00,NNE,23,1.0,2.0,94,0.00,,,0.35,0.000000,,2013-07-15 06:32:00,
2013-07-15 02:42:00,71.0,69.0,-100.00,NNE,23,1.0,2.0,94,0.00,,,0.35,0.000000,,2013-07-15 06:42:00,
2013-07-15 02:53:00,71.0,69.0,-100.00,NNE,23,1.0,2.0,94,0.00,,,0.35,0.000000,,2013-07-15 06:53:00,
2013-07-15 03:01:00,71.0,69.0,-100.00,NNE,23,1.0,2.0,94,0.00,,,0.35,0.000000,,2013-07-15 07:01:00,
2013-07-15 03:22:00,70.0,68.0,-100.00,NNE,27,1.0,2.0,95,0.00,,,0.34,0.000000,,2013-07-15 07:22:00,
2013-07-15 03:33:00,70.0,68.0,-100.00,NNE,27,1.0,2.0,95,0.00,,,0.34,0.000000,,2013-07-15 07:33:00,
2013-07-15 03:44:00,70.0,68.0,-100.00,NNE,27,1.0,2.0,95,0.00,,,0.34,0.000000,,2013-07-15 07:44:00,
2013-07-15 03:53:00,70.0,68.0,-100.00,NNE,27,1.0,2.0,95,0.00,,,0.34,0.000000,,2013-07-15 07:53:00,
2013-07-15 04:01:00,70.0,68.0,-100.00,NNE,27,1.0,2.0,95,0.00,,,0.34,0.000000,,2013-07-15 08:01:00,
2013-07-15 04:22:00,71.0,70.0,-100.00,NNE,20,1.0,2.0,96,0.00,,,0.34,0.000000,,2013-07-15 08:22:00,
2013-07-15 04:32:00,71.0,70.0,-100.00,NNE,20,1.0,2.0,96,0.00,,,0.34,0.000000,,2013-07-15 08:32:00,
2013-07-15 04:43:00,71.0,70.0,-100.00,NNE,20,1.0,2.0,96,0.00,,,0.34,0.000000,,2013-07-15 08:43:00,
2013-07-15 04:53:00,71.0,70.0,-100.00,NNE,20,1.0,2.0,96,0.00,,,0.34,0.000000,,2013-07-15 08:53:00,
2013-07-15 05:02:00,71.0,70.0,-100.00,NNE,20,1.0,2.0,96,0.00,,,0.34,0.000000,,2013-07-15 09:02:00,
2013-07-15 05:22:00,71.0,70.0,-100.00,NNE,27,1.0,2.0,97,0.00,,,0.34,0.000000,,2013-07-15 09:22:00,
2013-07-15 05:32:00,71.0,70.0,-100.00,NNE,27,1.0,2.0,97,0.00,,,0.34,0.000000,,2013-07-15 09:32:00,
2013-07-15 05:43:00,71.0,70.0,-100.00,NNE,27,1.0,2.0,97,0.00,,,0.34,0.000000,,2013-07-15 09:43:00,
2013-07-15 05:52:00,71.0,70.0,-100.00,NNE,27,1.0,2.0,97,0.00,,,0.34,0.000000,,2013-07-15 09:52:00,
2013-07-15 06:02:00,71.0,70.0,-100.00,NNE,27,1.0,2.0,97,0.00,,,0.34,0.000000,,2013-07-15 10:02:00,
2013-07-15 06:22:00,71.0,70.0,-100.00,NNE,28,1.0,2.0,96,0.00,,,0.34,0.000000,,2013-07-15 10:22:00,
2013-07-15 06:32:00,71.0,70.0,-100.00,NNE,28,1.0,2.0,96,0.00,,,0.34,0.000000,,2013-07-15 10:32:00,
2013-07-15 06:43:00,71.0,70.0,-100.00,NNE,28,1.0,2.0,96,0.00,,,0.34,0.000000,,2013-07-15 10:43:00,
2013-07-15 06:53:00,71.0,70.0,-100.00,NNE,28,1.0,2.0,96,0.00,,,0.34,0.000000,,2013-07-15 10:53:00,
2013-07-15 07:02:00,71.0,70.0,-100.00,NNE,28,1.0,2.0,96,0.00,,,0.34,0.000000,,2013-07-15 11:02:00,
2013-07-15 07:22:00,70.0,69.0,-100.00,NNE,26,1.0,2.0,97,0.00,,,0.26,13.000000,,2013-07-15 11:22:00,
2013-07-15 07:32:00,70.0,69.0,-100.00,NNE,26,1.0,2.0,97,0.00,,,0.26,13.000000,,2013-07-15 11:32:00,
2013-07-15 07:42:00,70.0,69.0,-100.00,NNE,26,1.0,2.0,97,0.00,,,0.26,13.000000,,2013-07-15 11:42:00,
2013-07-15 07:52:00,70.0,69.0,-100.00,NNE,26,1.0,2.0,97,0.00,,,0.26,13.000000,,2013-07-15 11:52:00,
2013-07-15 08:01:00,70.0,69.0,-100.00,NNE,26,1.0,2.0,97,0.00,,,0.26,13.000000,,2013-07-15 12:01:00,
2013-07-15 08:22:00,72.0,70.0,-100.00,NNE,32,1.0,2.0,95,0.00,,,0.24,68.000000,,2013-07-15 12:22:00,
2013-07-15 08:33:00,72.0,70.0,-100.00,NNE,32,1.0,2.0,95,0.00,,,0.24,68.000000,,2013-07-15 12:33:00,
2013-07-15 08:42:00,72.0,70.0,-100.00,NNE,32,1.0,2.0,95,0.00,,,0.24,68.000000,,2013-07-15 12:42:00,
2013-07-15 08:53:00,72.0,70.0,-100.00,NNE,32,1.0,2.0,95,0.00,,,0.24,68.000000,,2013-07-15 12:53:00,
2013-07-15 09:02:00,72.0,70.0,-100.00,NNE,32,1.0,2.0,95,0.00,,,0.24,68.000000,,2013-07-15 13:02:00,
2013-07-15 09:33:00,74.0,72.0,-100.00,East,87,1.0,3.0,94,0.00,,,0.12,146.000000,,2013-07-15 13:33:00,
2013-07-15 09:43:00,74.0,72.0,-100.00,East,87,1.0,3.0,94,0.00,,,0.12,146.000000,,2013-07-15 13:43:00,
2013-07-15 09:53:00,74.0,72.0,-100.00,East,87,1.0,3.0,94,0.00,,,0.12,146.000000,,2013-07-15 13:53:00,
2013-07-15 10:02:00,74.0,72.0,-100.00,East,87,1.0,3.0,94,0.00,,,0.12,146.000000,,2013-07-15 14:02:00,
2013-07-15 10:33:00,78.0,70.0,-100.00,NE,50,2.0,4.0,76,0.00,,,0.05,367.000000,,2013-07-15 14:33:00,
2013-07-15 10:42:00,78.0,70.0,-100.00,NE,50,2.0,4.0,76,0.00,,,0.05,367.000000,,2013-07-15 14:42:00,
2013-07-15 11:01:00,78.0,70.0,-100.00,NE,50,2.0,4.0,76,0.00,,,0.05,367.000000,,2013-07-15 15:01:00,
2013-07-15 11:04:00,80.0,73.0,-100.00,East,94,2.0,4.0,78,0.00,,,0.05,628.000000,,2013-07-15 15:04:00,
2013-07-15 11:41:00,80.0,73.0,-100.00,East,94,2.0,4.0,78,0.00,,,0.05,628.000000,,2013-07-15 15:41:00,
2013-07-15 11:49:00,80.0,73.0,-100.00,East,94,2.0,4.0,78,0.00,,,0.05,628.000000,,2013-07-15 15:49:00,
2013-07-15 12:04:00,82.0,69.0,-100.00,ENE,78,2.0,7.0,66,0.00,,,0.01,882.000000,,2013-07-15 16:04:00,
2013-07-15 12:33:00,82.0,69.0,-100.00,ENE,78,2.0,7.0,66,0.00,,,0.01,882.000000,,2013-07-15 16:33:00,
2013-07-15 12:49:00,82.0,69.0,-100.00,ENE,78,2.0,7.0,66,0.00,,,0.01,882.000000,,2013-07-15 16:49:00,
2013-07-15 13:04:00,83.0,69.0,-100.00,NE,55,2.0,8.0,62,0.00,,,0.01,912.000000,,2013-07-15 17:04:00,
2013-07-15 13:37:00,83.0,69.0,-100.00,NE,55,2.0,8.0,62,0.00,,,0.01,912.000000,,2013-07-15 17:37:00,
2013-07-15 13:50:00,83.0,69.0,-100.00,NE,55,2.0,8.0,62,0.00,,,0.01,912.000000,,2013-07-15 17:50:00,
2013-07-15 14:00:00,83.0,69.0,-100.00,NE,55,2.0,8.0,62,0.00,,,0.01,912.000000,,2013-07-15 18:00:00,
2013-07-15 14:04:00,85.0,68.0,-100.00,ESE,120,3.0,8.0,56,0.00,,,0.00,909.000000,,2013-07-15 18:04:00,
2013-07-15 14:45:00,85.0,68.0,-100.00,ESE,120,3.0,8.0,56,0.00,,,0.00,909.000000,,2013-07-15 18:45:00,
2013-07-15 14:59:00,85.0,68.0,-100.00,ESE,120,3.0,8.0,56,0.00,,,0.00,909.000000,,2013-07-15 18:59:00,
2013-07-15 15:04:00,87.0,68.0,-100.00,NNW,334,2.0,6.0,54,0.00,,,0.00,1032.000000,,2013-07-15 19:04:00,
2013-07-15 15:39:00,87.0,68.0,-100.00,NNW,334,2.0,6.0,54,0.00,,,0.00,1032.000000,,2013-07-15 19:39:00,
2013-07-15 15:49:00,87.0,68.0,-100.00,NNW,334,2.0,6.0,54,0.00,,,0.00,1032.000000,,2013-07-15 19:49:00,
2013-07-15 15:56:00,87.0,68.0,-100.00,NNW,334,2.0,6.0,54,0.00,,,0.00,1032.000000,,2013-07-15 19:56:00,
2013-07-15 16:37:00,86.0,67.0,-100.00,East,81,2.0,4.0,53,0.00,,,0.00,783.000000,,2013-07-15 20:37:00,
2013-07-15 16:43:00,86.0,67.0,-100.00,East,81,2.0,4.0,53,0.00,,,0.00,783.000000,,2013-07-15 20:43:00,
2013-07-15 16:59:00,86.0,67.0,-100.00,East,81,2.0,4.0,53,0.00,,,0.00,783.000000,,2013-07-15 20:59:00,
2013-07-15 17:40:00,87.0,67.0,-100.00,ENE,72,2.0,7.0,51,0.00,,,0.00,714.000000,,2013-07-15 21:40:00,
2013-07-15 17:48:00,87.0,67.0,-100.00,ENE,72,2.0,7.0,51,0.00,,,0.00,714.000000,,2013-07-15 21:48:00,
2013-07-15 18:03:00,87.0,67.0,-100.00,ENE,72,2.0,7.0,51,0.00,,,0.00,714.000000,,2013-07-15 22:03:00,
2013-07-15 18:04:00,87.0,68.0,-100.00,East,91,2.0,6.0,53,0.00,,,0.00,530.000000,,2013-07-15 22:04:00,
2013-07-15 18:35:00,87.0,68.0,-100.00,East,91,2.0,6.0,53,0.00,,,0.00,530.000000,,2013-07-15 22:35:00,
2013-07-15 18:44:00,87.0,68.0,-100.00,East,91,2.0,6.0,53,0.00,,,0.00,530.000000,,2013-07-15 22:44:00,
2013-07-15 18:54:00,87.0,68.0,-100.00,East,91,2.0,6.0,53,0.00,,,0.00,530.000000,,2013-07-15 22:54:00,
2013-07-15 19:30:00,85.0,67.0,-100.00,East,82,2.0,5.0,55,0.00,,,0.00,408.000000,,2013-07-15 23:30:00,
2013-07-15 19:40:00,85.0,67.0,-100.00,East,82,2.0,5.0,55,0.00,,,0.00,408.000000,,2013-07-15 23:40:00,
2013-07-15 19:50:00,85.0,67.0,-100.00,East,82,2.0,5.0,55,0.00,,,0.00,408.000000,,2013-07-15 23:50:00,
2013-07-15 20:03:00,85.0,67.0,-100.00,East,82,2.0,5.0,55,0.00,,,0.00,408.000000,,2013-07-16 00:03:00,
2013-07-15 20:04:00,82.0,67.0,-100.00,East,85,1.0,4.0,61,0.00,,,0.00,178.000000,,2013-07-16 00:04:00,
2013-07-15 20:28:00,82.0,67.0,-100.00,East,85,1.0,4.0,61,0.00,,,0.00,178.000000,,2013-07-16 00:28:00,
2013-07-15 20:34:00,82.0,67.0,-100.00,East,85,1.0,4.0,61,0.00,,,0.00,178.000000,,2013-07-16 00:34:00,
2013-07-15 20:50:00,82.0,67.0,-100.00,East,85,1.0,4.0,61,0.00,,,0.00,178.000000,,2013-07-16 00:50:00,
2013-07-15 21:04:00,75.0,69.0,-100.00,NNW,345,1.0,1.0,82,0.00,,,0.00,10.000000,,2013-07-16 01:04:00,
2013-07-15 21:39:00,75.0,69.0,-100.00,NNW,345,1.0,1.0,82,0.00,,,0.00,10.000000,,2013-07-16 01:39:00,
2013-07-15 21:49:00,75.0,69.0,-100.00,NNW,345,1.0,1.0,82,0.00,,,0.00,10.000000,,2013-07-16 01:49:00,
2013-07-15 22:02:00,75.0,69.0,-100.00,NNW,345,1.0,1.0,82,0.00,,,0.00,10.000000,,2013-07-16 02:02:00,
2013-07-15 22:04:00,73.0,70.0,-100.00,NNW,341,1.0,3.0,91,0.00,,,0.00,0.000000,,2013-07-16 02:04:00,
2013-07-15 22:35:00,73.0,70.0,-100.00,NNW,341,1.0,3.0,91,0.00,,,0.00,0.000000,,2013-07-16 02:35:00,
2013-07-15 22:52:00,73.0,70.0,-100.00,NNW,341,1.0,3.0,91,0.00,,,0.00,0.000000,,2013-07-16 02:52:00,
2013-07-15 23:41:00,72.0,70.0,-100.00,North,3,0.0,3.0,93,0.00,,,0.00,0.000000,,2013-07-16 03:41:00,
2013-07-15 23:49:00,72.0,70.0,-100.00,North,3,0.0,3.0,93,0.00,,,0.00,0.000000,,2013-07-16 03:49:00,
2013-07-15 23:58:00,72.0,70.0,-100.00,North,3,0.0,3.0,93,0.00,,,0.00,0.000000,,2013-07-16 03:58:00,